Halley Research Station


Codes: EGAH/
Name: Halley Research Station
City:
Country: Antarctica
Elevation: 108 ft.

Photos at Halley Research Station


   Photos courtesy of SpottingLog. You can add your own sightings and photos by signing up for a free trial today.



No photos found.

Weather at Halley Research Station


Time (UTC)DescriptionTempratureWindCloud coverageVisibilityPressureHumidity
23-May-2024 18:00Overcast Clouds-25°C11 mph, SW100%556m979hPa100%
23-May-2024 21:00Overcast Clouds-25°C11 mph, SW100%721m979hPa100%
24-May-2024 00:00Overcast Clouds-26°C11 mph, SW100%4805m978hPa100%
24-May-2024 03:00Overcast Clouds-29°C9 mph, SW98%4400m979hPa100%
24-May-2024 06:00Overcast Clouds-31°C7 mph, SW99%2612m980hPa100%
24-May-2024 09:00Overcast Clouds-34°C2 mph, W100%497m980hPa100%
24-May-2024 12:00Overcast Clouds-37°C2 mph, E100%1989m981hPa100%
24-May-2024 15:00Overcast Clouds-39°C4 mph, NE97%6545m982hPa99%
24-May-2024 18:00Overcast Clouds-38°C7 mph, NE98%10000m983hPa96%
24-May-2024 21:00Overcast Clouds-34°C9 mph, NE100%10000m983hPa97%
25-May-2024 00:00Overcast Clouds-32°C13 mph, NE100%10000m983hPa95%
25-May-2024 03:00Overcast Clouds-31°C16 mph, NE100%5565m984hPa93%
25-May-2024 06:00Light Snow-28°C16 mph, NE100%360m985hPa97%
25-May-2024 09:00Light Snow-26°C16 mph, E100%284m985hPa98%
25-May-2024 12:00Light Snow-25°C13 mph, E100%382m986hPa98%
25-May-2024 15:00Light Snow-23°C11 mph, E100%433m986hPa98%
25-May-2024 18:00Light Snow-22°C9 mph, E100%364m986hPa98%
25-May-2024 21:00Light Snow-22°C7 mph, E100%660m985hPa99%
26-May-2024 00:00Light Snow-23°C4 mph, SE100%1160m983hPa100%
26-May-2024 03:00Overcast Clouds-22°C4 mph, SE100%993m982hPa99%
26-May-2024 06:00Overcast Clouds-24°C4 mph, SE99%1695m980hPa100%
26-May-2024 09:00Overcast Clouds-26°C4 mph, SE96%1908m979hPa100%
26-May-2024 12:00Overcast Clouds-25°C4 mph, SE98%820m978hPa100%
26-May-2024 15:00Overcast Clouds-26°C7 mph, SE98%1838m977hPa100%
26-May-2024 18:00Overcast Clouds-25°C7 mph, E99%1104m976hPa100%
26-May-2024 21:00Overcast Clouds-24°C7 mph, E98%1371m976hPa100%
27-May-2024 00:00Overcast Clouds-27°C7 mph, E97%2885m976hPa100%
27-May-2024 03:00Overcast Clouds-24°C9 mph, E97%909m976hPa99%
27-May-2024 06:00Overcast Clouds-23°C9 mph, E98%1296m976hPa99%
27-May-2024 09:00Overcast Clouds-22°C11 mph, E100%895m977hPa99%
27-May-2024 12:00Light Snow-21°C11 mph, E100%705m978hPa98%
27-May-2024 15:00Light Snow-21°C16 mph, NE100%740m978hPa97%
27-May-2024 18:00Light Snow-21°C13 mph, NE100%1097m979hPa97%
27-May-2024 21:00Overcast Clouds-21°C11 mph, NE100%994m979hPa99%
28-May-2024 00:00Overcast Clouds-22°C9 mph, NE100%4498m979hPa99%
28-May-2024 03:00Overcast Clouds-25°C7 mph, NE99%10000m979hPa99%
28-May-2024 06:00Overcast Clouds-28°C4 mph, NE99%10000m979hPa99%
28-May-2024 09:00Overcast Clouds-28°C2 mph, E100%10000m978hPa94%
28-May-2024 12:00Overcast Clouds-26°C4 mph, SW100%10000m979hPa91%
28-May-2024 15:00Overcast Clouds-24°C7 mph, SW99%10000m979hPa92%